1485964800.78,50180,9.69,73344.5,-8.35,-17.25,-19.13,0,*59
1485964802.07,50181,9.69,73346.3,-8.35,-16.09,-18.01,0,*55
1485964803.3,50182,9.69,73346.8,-8.35,-15.11,-16.97,0,*5D
1485964804.53,50183,9.69,73352.8,-8.35,-15.07,-16.83,0,*5E
1485964805.74,50184,9.69,73352.8,-8.33,-15.63,-16.93,0,*5C
1485964807.0,50185,9.69,73354.8,-8.33,-16.17,-17.25,0,*51
1485964808.24,50186,9.69,73350.0,-8.33,-16.45,-17.97,0,*5C
1485964809.47,50187,9.69,73354.5,-8.35,-17.49,-19.37,0,*52
1485964810.68,50188,9.69,73346.0,-8.33,-18.49,-19.99,0,*50
1485964811.94,50189,9.69,73346.8,-8.35,-18.35,-19.75,0,*5E
1485964813.18,50190,9.69,73346.0,-8.33,-16.97,-18.35,0,*53
1485964814.41,50191,9.69,73346.0,-8.33,-15.63,-17.11,0,*53
1485964815.65,50192,9.69,73346.8,-8.33,-14.65,-16.17,0,*50
1485964816.89,50193,9.69,73350.8,-8.33,-14.01,-15.63,0,*53
1485964818.09,50194,9.69,73350.0,-8.33,-13.73,-15.67,0,*52
1485964819.3,50195,9.69,73348.8,-8.33,-13.93,-15.63,0,*59
1485964820.51,50196,9.69,73348.3,-8.33,-14.29,-16.03,0,*59
1485964821.72,50197,9.69,73346.0,-8.29,-14.89,-16.45,0,*5B
1485964822.97,50198,9.69,73342.0,-8.33,-15.35,-16.51,0,*5C
1485964824.18,50199,9.69,73346.8,-8.33,-15.49,-16.03,0,*51
1485964825.41,50200,9.69,73346.8,-8.29,-15.01,-15.07,0,*52
1485964826.65,50201,9.69,73344.5,-8.33,-14.33,-14.47,0,*5D
1485964827.9,50202,9.69,73346.0,-8.33,-14.79,-15.01,0,*53
1485964829.11,50203,9.69,73342.3,-8.33,-15.63,-15.95,0,*55
1485964830.38,50204,9.69,73342.8,-8.29,-16.23,-16.09,0,*58
1485964831.62,50205,9.69,73344.5,-8.29,-15.89,-15.95,0,*5C
1485964832.88,50206,9.69,73344.5,-8.33,-16.09,-16.51,0,*54
1485964834.11,50207,9.69,73340.0,-8.29,-16.31,-16.45,0,*50
1485964835.34,50208,9.69,73340.0,-8.29,-16.51,-16.37,0,*5C
1485964836.55,50209,9.69,73342.3,-8.33,-16.79,-16.45,0,*59
1485964837.81,50210,9.69,73346.3,-8.29,-16.69,-16.31,0,*58
1485964839.07,50211,9.69,73338.8,-8.29,-16.31,-16.17,0,*50
1485964840.29,50212,9.69,73338.0,-8.33,-15.15,-15.29,0,*53
1485964841.5,50213,9.69,73342.3,-8.29,-14.29,-14.61,0,*5A
1485964842.77,50214,9.69,73338.3,-8.29,-13.61,-14.01,0,*50
1485964844.03,50215,9.69,73338.8,-8.29,-13.01,-13.33,0,*51
1485964845.24,50216,9.69,73344.8,-8.29,-12.43,-12.89,0,*55
1485964846.5,50217,9.69,73344.3,-8.27,-11.97,-12.43,0,*56
1485964847.76,50218,9.69,73344.8,-8.27,-11.73,-12.03,0,*57
1485964849.04,50219,9.69,73344.3,-8.27,-11.77,-11.89,0,*53
1485964850.3,50220,9.69,73342.5,-8.25,-11.85,-12.15,0,*50
1485964851.58,50221,9.69,73342.5,-8.27,-11.89,-12.15,0,*5F
1485964852.83,50222,9.69,73344.3,-8.25,-11.85,-11.97,0,*5B
1485964854.12,50223,9.69,73336.3,-8.27,-11.59,-11.59,0,*5B
1485964855.35,50224,9.69,73338.5,-8.25,-11.55,-11.41,0,*5B
1485964856.61,50225,9.69,73336.8,-8.27,-11.67,-11.41,0,*59
1485964857.86,50226,9.69,73342.5,-8.25,-11.73,-11.33,0,*58
1485964859.12,50227,9.69,73342.0,-8.25,-11.55,-11.29,0,*56
1485964860.36,50228,9.69,73344.3,-8.25,-11.19,-11.07,0,*5D
1485964861.56,50229,9.69,73344.8,-8.25,-10.89,-10.85,0,*5F
1485964862.79,50230,9.69,73340.5,-8.23,-10.85,-10.57,0,*52
1485964864.04,50231,9.69,73338.8,-8.25,-11.01,-10.63,0,*5F
1485964865.28,50232,9.69,73336.5,-8.21,-11.01,-10.67,0,*5C
1485964866.49,50233,9.69,73338.8,-8.21,-10.89,-10.57,0,*5F
1485964867.76,50234,9.69,73338.5,-8.23,-10.71,-10.45,0,*5E
1485964869.0,50235,9.69,73340.3,-8.23,-10.53,-10.19,0,*56
1485964870.24,50236,9.69,73340.3,-8.23,-10.31,-10.19,0,*51
1485964871.46,50237,9.69,73336.8,-8.21,-10.15,-10.01,0,*5D
1485964872.68,50238,9.69,73338.0,-8.21,-10.15,-10.01,0,*52
1485964873.9,50239,9.69,73336.3,-8.23,-10.05,-10.05,0,*54
1485964875.13,50240,9.69,73342.3,-8.21,-10.19,-10.27,0,*55
1485964876.39,50241,9.69,73344.0,-8.23,-10.27,-10.41,0,*5B
1485964877.66,50242,9.69,73342.8,-8.19,-10.35,-10.63,0,*52
1485964878.87,50243,9.69,73340.5,-8.21,-10.57,-11.01,0,*59
1485964880.15,50244,9.69,73344.8,-8.19,-10.79,-11.51,0,*5C
1485964881.39,50245,9.69,73346.8,-8.19,-11.45,-12.03,0,*57
1485964882.66,50246,9.69,73344.8,-8.21,-11.55,-11.85,0,*53
1485964883.91,50247,9.69,73342.0,-8.19,-11.11,-11.37,0,*50
1485964885.14,50248,9.69,73344.3,-8.19,-10.93,-11.19,0,*58
1485964886.37,50249,9.69,73346.0,-8.19,-10.85,-11.19,0,*5E
1485964887.61,50250,9.69,73342.3,-8.19,-10.93,-11.19,0,*51
1485964888.82,50251,9.69,73346.5,-8.17,-10.97,-11.45,0,*53
1485964890.05,50252,9.69,73344.3,-8.17,-11.19,-11.89,0,*57
1485964891.32,50253,9.69,73346.5,-8.19,-11.45,-12.07,0,*54
1485964892.56,50254,9.69,73346.0,-8.17,-11.63,-12.29,0,*55
1485964893.79,50255,9.69,73348.0,-8.17,-11.81,-12.21,0,*50
1485964895.05,50256,9.69,73350.3,-8.17,-11.77,-11.81,0,*53
1485964896.3,50257,9.69,73350.0,-8.17,-11.51,-11.37,0,*5B
1485964897.54,50258,9.69,73348.0,-8.17,-11.07,-10.97,0,*5C
1485964898.77,50259,9.69,73346.0,-8.17,-10.75,-10.85,0,*5A
1485964900.01,50260,9.69,73346.3,-8.17,-10.63,-10.53,0,*5C
1485964901.23,50261,9.69,73346.5,-8.17,-10.35,-10.27,0,*5D
1485964902.46,50262,9.69,73346.5,-8.19,-9.97,-10.01,0,*64
1485964903.69,50263,9.69,73342.3,-8.15,-9.79,-9.79,0,*5E
1485964904.92,50264,9.69,73342.8,-8.15,-9.75,-9.79,0,*55
1485964906.15,50265,9.69,73348.3,-8.15,-9.75,-10.09,0,*6B
1485964907.41,50266,9.69,73348.5,-8.15,-9.89,-10.63,0,*67
1485964908.65,50267,9.69,73348.0,-8.15,-10.23,-11.41,0,*5F
1485964909.91,50268,9.69,73350.3,-8.15,-10.57,-11.97,0,*58
1485964911.15,50269,9.69,73348.3,-8.13,-10.63,-12.03,0,*56
1485964912.41,50270,9.69,73348.8,-8.13,-10.75,-11.77,0,*59
1485964913.67,50271,9.69,73352.3,-8.15,-10.71,-11.45,0,*5B
1485964914.88,50272,9.69,73350.8,-8.13,-10.57,-11.15,0,*5F
1485964916.13,50273,9.69,73348.5,-8.13,-10.35,-10.63,0,*5A
1485964917.33,50274,9.69,73354.5,-8.13,-10.05,-10.31,0,*59
1485964918.53,50275,9.69,73354.8,-8.13,-9.93,-10.09,0,*64
1485964919.73,50276,9.69,73352.0,-8.13,-9.89,-10.09,0,*6C
1485964920.95,50277,9.69,73356.5,-8.13,-10.19,-10.35,0,*53
1485964922.21,50278,9.69,73358.0,-8.13,-10.71,-10.79,0,*5A
1485964923.48,50279,9.69,73354.8,-8.13,-11.29,-11.07,0,*5F
1485964924.74,50280,9.69,73344.5,-8.13,-11.55,-11.59,0,*59
1485964925.98,50281,9.69,73344.8,-8.13,-12.29,-12.75,0,*5D
1485964927.27,50282,9.69,73338.5,-8.11,-13.83,-14.51,0,*5D
1485964928.54,50283,9.69,73348.8,-8.07,-15.39,-16.55,0,*5A
1485964929.77,50284,9.69,73344.3,-8.13,-17.25,-18.45,0,*58
1485964931.03,50285,9.69,73344.0,-8.13,-18.55,-19.81,0,*58
1485964932.27,50286,9.69,73346.8,-8.13,-19.23,-20.43,0,*5F
1485964933.49,50287,9.69,73344.0,-8.13,-19.47,-20.25,0,*5C
1485964934.76,50288,9.69,73348.0,-8.15,-18.99,-19.61,0,*5D
1485964936.01,50289,9.69,73346.5,-8.13,-18.59,-19.23,0,*50
1485964937.22,50290,9.69,73344.5,-8.13,-18.41,-18.69,0,*5E
1485964938.43,50291,9.69,73338.3,-8.13,-18.11,-18.17,0,*53
1485964939.68,50292,9.69,73340.8,-8.13,-17.55,-17.63,0,*53
1485964940.97,50293,9.69,73336.0,-8.15,-17.03,-16.51,0,*57
1485964942.22,50294,9.69,73336.5,-8.15,-16.03,-15.25,0,*51
1485964943.45,50295,9.69,73332.5,-8.13,-14.97,-14.23,0,*5E
1485964944.71,50296,9.69,73332.0,-8.15,-14.11,-13.29,0,*58
1485964945.95,50297,9.69,73330.0,-8.15,-13.11,-12.39,0,*5E
1485964947.19,50298,9.69,73334.8,-8.13,-12.29,-11.73,0,*50
1485964948.43,50299,9.69,73332.5,-8.13,-11.55,-10.93,0,*56
1485964949.64,50300,9.69,73328.8,-8.13,-10.93,-10.57,0,*54
1485964950.86,50301,9.69,73330.5,-8.13,-10.49,-10.19,0,*58
1485964952.05,50302,9.69,73330.3,-8.13,-10.05,-9.79,0,*6D
1485964953.28,50303,9.69,73332.0,-8.13,-9.75,-9.53,0,*5B
1485964954.51,50304,9.69,73334.5,-8.13,-9.41,-9.27,0,*58
1485964955.77,50305,9.69,73336.8,-8.15,-9.11,-9.01,0,*5E
1485964957.0,50306,9.69,73332.5,-8.11,-8.97,-8.89,0,*57
1485964958.23,50307,9.69,73334.3,-8.07,-8.85,-8.85,0,*5E
1485964959.5,50308,9.69,73338.5,-8.11,-8.81,-8.81,0,*56
1485964960.73,50309,9.69,73340.8,-8.07,-8.71,-8.71,0,*50
1485964961.95,50310,9.69,73336.5,-8.07,-8.71,-8.63,0,*5B
1485964963.19,50311,9.69,73342.3,-8.11,-8.81,-8.75,0,*55
1485964964.42,50312,9.69,73342.5,-8.07,-8.71,-8.71,0,*5A
1485964965.64,50313,9.69,73342.3,-8.07,-8.75,-8.71,0,*5F
1485964966.87,50314,9.69,73342.0,-8.07,-8.71,-8.71,0,*5C
1485964968.1,50315,9.69,73344.3,-8.07,-8.85,-8.75,0,*52
1485964969.31,50316,9.69,73340.8,-8.05,-8.85,-8.85,0,*5C
1485964970.51,50317,9.69,73346.3,-8.05,-8.85,-8.85,0,*5D
1485964971.72,50318,9.69,73344.8,-8.05,-8.89,-8.89,0,*52
1485964972.93,50319,9.69,73344.3,-8.05,-8.89,-8.89,0,*53
1485964974.13,50320,9.69,73342.0,-8.05,-9.01,-9.19,0,*50
1485964975.39,50321,9.69,73346.8,-8.05,-9.15,-9.41,0,*59
1485964976.62,50322,9.69,73340.3,-8.05,-9.41,-9.79,0,*50
1485964977.81,50323,9.69,73346.3,-8.05,-9.67,-9.89,0,*5A
1485964979.02,50324,9.69,73340.0,-8.05,-9.67,-10.01,0,*65
1485964980.21,50325,9.69,73342.3,-8.05,-9.89,-10.09,0,*6C
1485964981.48,50326,9.69,73342.5,-8.03,-10.35,-10.41,0,*5A
1485964982.75,50327,9.69,73344.5,-8.03,-10.41,-10.49,0,*50
1485964984.01,50328,9.69,73348.3,-8.03,-10.41,-10.53,0,*54
1485964985.26,50329,9.69,73344.0,-8.03,-10.27,-10.35,0,*55
1485964986.48,50330,9.69,73340.8,-8.03,-10.09,-10.09,0,*5E
1485964987.7,50331,9.69,73342.5,-8.03,-9.97,-9.97,0,*5F
1485964988.92,50332,9.69,73342.5,-8.03,-9.97,-9.97,0,*5C
1485964990.17,50333,9.69,73342.3,-8.03,-9.83,-9.97,0,*58
1485964991.38,50334,9.69,73346.5,-8.05,-9.71,-10.01,0,*63
1485964992.58,50335,9.69,73350.0,-8.01,-9.67,-9.93,0,*52
1485964993.83,50336,9.69,73346.3,-8.03,-9.53,-9.71,0,*58
1485964995.06,50337,9.69,73346.3,-8.01,-9.23,-9.41,0,*5F
1485964996.31,50338,9.69,73344.0,-8.01,-9.11,-9.15,0,*50
1485964997.55,50339,9.69,73344.8,-8.01,-8.89,-9.11,0,*55
1485964998.76,50340,9.69,73346.3,-8.01,-8.89,-9.01,0,*5A
1485964999.99,50341,9.69,73344.3,-7.99,-8.89,-8.97,0,*5B
1485965001.2,50342,9.69,73344.8,-8.01,-8.89,-8.89,0,*59
1485965002.41,50343,9.69,73342.5,-8.01,-8.85,-8.89,0,*54
1485965003.66,50344,9.69,73346.0,-7.99,-8.81,-8.89,0,*59
1485965004.9,50345,9.69,73346.5,-7.99,-8.71,-8.89,0,*57
1485965006.17,50346,9.69,73348.3,-7.99,-8.81,-8.81,0,*53
1485965007.39,50347,9.69,73348.3,-8.01,-8.71,-8.81,0,*53
1485965008.64,50348,9.69,73348.8,-7.99,-8.71,-8.81,0,*52
1485965009.88,50349,9.69,73354.8,-7.99,-8.71,-8.71,0,*5C
1485965011.1,50350,9.69,73352.0,-7.99,-8.71,-8.71,0,*54
1485965012.35,50351,9.69,73348.5,-7.99,-8.81,-8.71,0,*5A
1485965013.54,50352,9.69,73346.3,-7.97,-8.75,-8.67,0,*5B
1485965014.76,50353,9.69,73340.0,-7.95,-8.71,-8.59,0,*51
1485965015.96,50354,9.69,73338.3,-7.97,-8.75,-8.63,0,*59
1485965017.15,50355,9.69,73338.5,-7.97,-8.75,-8.67,0,*5C
1485965018.36,50356,9.69,73330.3,-7.97,-8.81,-8.63,0,*50
1485965019.57,50357,9.69,73332.0,-7.97,-8.81,-8.67,0,*55
1485965020.76,50358,9.69,73342.3,-7.97,-8.75,-8.67,0,*51
1485965021.98,50359,9.69,73346.3,-7.95,-8.71,-8.63,0,*52
1485965023.22,50360,9.69,73344.0,-7.97,-8.81,-8.81,0,*59
1485965024.43,50361,9.69,73348.5,-7.97,-8.85,-8.75,0,*57
1485965025.69,50362,9.69,73344.0,-7.95,-8.81,-8.81,0,*59
1485965026.9,50363,9.69,73348.3,-7.97,-8.93,-8.85,0,*5D
1485965028.13,50364,9.69,73346.0,-7.95,-8.93,-8.89,0,*54
1485965029.35,50365,9.69,73344.0,-7.95,-9.05,-9.01,0,*5A
1485965030.61,50366,9.69,73344.3,-7.95,-9.15,-9.01,0,*58
1485965031.84,50367,9.69,73342.3,-7.95,-9.19,-9.05,0,*51
1485965033.09,50368,9.69,73346.3,-7.97,-9.45,-9.37,0,*54
1485965034.33,50369,9.69,73346.5,-7.93,-9.57,-9.45,0,*57
1485965035.52,50370,9.69,73346.0,-7.93,-9.97,-9.67,0,*53
1485965036.75,50371,9.69,73346.8,-7.93,-10.41,-10.15,0,*5C
1485965038.01,50372,9.69,73346.8,-7.95,-10.85,-10.79,0,*5B
1485965039.27,50373,9.69,73342.8,-7.95,-11.45,-11.51,0,*5C
1485965040.56,50374,9.69,73346.3,-7.95,-11.89,-11.55,0,*5F
1485965041.84,50375,9.69,73338.5,-7.95,-11.81,-11.37,0,*52
1485965043.07,50376,9.69,73338.5,-7.93,-11.67,-11.23,0,*5A
1485965044.32,50377,9.69,73342.3,-7.93,-11.55,-11.37,0,*5F
1485965045.57,50378,9.69,73336.8,-7.93,-11.63,-11.37,0,*55
1485965046.86,50379,9.69,73334.5,-7.95,-11.55,-11.55,0,*53
1485965048.1,50380,9.69,73338.5,-7.93,-11.45,-11.73,0,*56
1485965049.35,50381,9.69,73336.8,-7.93,-11.37,-11.55,0,*56
1485965050.61,50382,9.69,73336.8,-7.91,-11.19,-11.59,0,*57
1485965051.87,50383,9.69,73336.8,-7.93,-11.37,-11.93,0,*5E
1485965053.12,50384,9.69,73340.5,-7.91,-11.19,-11.33,0,*5D
1485965054.32,50385,9.69,73340.8,-7.93,-10.85,-10.93,0,*51
1485965055.59,50386,9.69,73344.0,-7.91,-10.63,-10.53,0,*54
1485965056.79,50387,9.69,73350.0,-7.93,-10.49,-10.23,0,*58
1485965057.99,50388,9.69,73350.3,-7.93,-10.35,-9.89,0,*64
1485965059.19,50389,9.69,73346.8,-7.93,-10.01,-9.75,0,*61
1485965060.4,50390,9.69,73344.8,-7.93,-9.75,-9.57,0,*52
1485965061.62,50391,9.69,73348.8,-7.93,-9.71,-9.57,0,*57
1485965062.9,50392,9.69,73344.3,-7.91,-9.61,-9.53,0,*53
1485965064.13,50393,9.69,73348.0,-7.93,-9.57,-9.57,0,*51
1485965065.4,50394,9.69,73346.0,-7.91,-9.53,-9.41,0,*57
1485965066.64,50395,9.69,73346.5,-7.93,-9.57,-9.41,0,*50
1485965067.91,50396,9.69,73344.5,-7.91,-9.53,-9.37,0,*54
1485965069.16,50397,9.69,73344.5,-7.91,-9.67,-9.41,0,*53
1485965070.34,50398,9.69,73346.0,-7.93,-9.89,-9.67,0,*5A
1485965071.58,50399,9.69,73344.3,-7.91,-10.31,-10.05,0,*5E
1485965072.84,50400,9.69,73344.3,-7.91,-10.79,-10.49,0,*5D
1485965074.12,50401,9.69,73342.3,-7.91,-11.51,-11.51,0,*5F
1485965075.39,50402,9.69,73340.5,-7.91,-12.11,-12.29,0,*57
1485965076.65,50403,9.69,73344.0,-7.91,-12.35,-12.47,0,*58
1485965077.89,50404,9.69,73342.5,-7.91,-12.29,-12.25,0,*56
1485965079.1,50405,9.69,73340.0,-7.93,-12.93,-12.93,0,*59
1485965080.33,50406,9.69,73346.8,-7.91,-13.55,-13.55,0,*58
1485965081.6,50407,9.69,73346.8,-7.91,-14.29,-14.55,0,*52
1485965082.82,50408,9.69,73344.8,-7.93,-14.89,-15.01,0,*55
1485965084.09,50409,9.69,73346.0,-7.91,-15.35,-15.49,0,*5C
1485965085.36,50410,9.69,73342.0,-7.91,-15.43,-15.75,0,*5A
1485965086.62,50411,9.69,73346.3,-7.91,-14.75,-15.07,0,*5A
1485965087.87,50412,9.69,73344.3,-7.93,-14.43,-14.51,0,*5C
1485965089.1,50413,9.69,73344.5,-7.93,-14.37,-14.75,0,*58
1485965090.4,50414,9.69,73346.8,-7.91,-14.47,-14.83,0,*53
1485965091.64,50415,9.69,73342.5,-7.91,-14.11,-14.69,0,*55
1485965092.91,50416,9.69,73344.8,-7.91,-13.73,-14.47,0,*59
1485965094.17,50417,9.69,73344.8,-7.91,-13.43,-14.01,0,*59
1485965095.4,50418,9.69,73348.5,-7.91,-12.97,-13.69,0,*57
1485965096.62,50419,9.69,73346.5,-7.93,-12.61,-13.15,0,*56
1485965097.85,50420,9.69,73344.0,-7.93,-12.39,-13.01,0,*54
1485965099.09,50421,9.69,73348.0,-7.91,-12.25,-12.89,0,*5B
1485965100.3,50422,9.69,73350.3,-7.93,-12.21,-12.93,0,*55
1485965101.53,50423,9.69,73350.5,-7.93,-12.03,-12.53,0,*58
1485965102.76,50424,9.69,73352.3,-7.93,-11.77,-12.47,0,*5A
1485965104.02,50425,9.69,73354.3,-7.91,-11.77,-12.43,0,*5D
1485965105.26,50426,9.69,73350.0,-7.93,-11.77,-12.21,0,*58
1485965106.49,50427,9.69,73348.0,-7.93,-11.77,-12.03,0,*59
1485965107.74,50428,9.69,73348.0,-7.93,-11.81,-12.07,0,*5B
1485965108.98,50429,9.69,73348.8,-7.93,-12.07,-12.29,0,*5B
1485965110.21,50430,9.69,73350.3,-7.93,-12.21,-12.65,0,*5F
1485965111.44,50431,9.69,73346.5,-7.91,-12.97,-13.73,0,*57
1485965112.69,50432,9.69,73346.8,-7.91,-14.11,-14.89,0,*5E
1485965113.96,50433,9.69,73346.8,-7.91,-14.83,-15.75,0,*56
1485965115.24,50434,9.69,73352.0,-7.91,-14.97,-15.85,0,*5B
1485965116.44,50435,9.69,73348.0,-7.93,-14.89,-15.63,0,*5F
1485965117.67,50436,9.69,73348.0,-7.91,-14.69,-15.63,0,*50
1485965118.93,50437,9.69,73348.8,-7.93,-14.75,-15.81,0,*52
1485965120.17,50438,9.69,73346.5,-7.93,-15.21,-16.51,0,*53
1485965121.4,50439,9.69,73346.8,-7.93,-15.25,-16.65,0,*51
1485965122.66,50440,9.69,73350.3,-7.91,-15.15,-17.21,0,*5F
1485965123.92,50441,9.69,73350.0,-7.93,-15.39,-17.59,0,*5D
1485965125.13,50442,9.69,73348.0,-7.93,-15.53,-18.07,0,*56
1485965126.37,50443,9.69,73348.3,-7.91,-16.45,-18.73,0,*52
1485965127.6,50444,9.69,73348.3,-7.93,-17.17,-19.37,0,*50
1485965128.81,50445,9.69,73348.0,-7.93,-16.79,-18.45,0,*5C
1485965130.01,50446,9.69,73348.0,-7.93,-15.95,-17.31,0,*52
1485965131.27,50447,9.69,73344.8,-7.93,-15.35,-16.69,0,*55
1485965132.49,50448,9.69,73346.0,-7.93,-14.75,-16.41,0,*55
1485965133.74,50449,9.69,73350.3,-7.93,-14.01,-15.49,0,*5C
1485965134.94,50450,9.69,73344.5,-7.93,-13.15,-14.19,0,*52
1485965136.2,50451,9.69,73344.3,-7.91,-12.29,-13.01,0,*51
1485965137.44,50452,9.69,73350.5,-7.93,-11.45,-12.15,0,*5D
1485965138.69,50453,9.69,73344.8,-7.93,-10.71,-11.33,0,*5D
1485965139.89,50454,9.69,73352.0,-7.93,-10.35,-10.85,0,*56
1485965141.09,50455,9.69,73350.8,-7.93,-9.97,-10.49,0,*67
1485965142.31,50456,9.69,73348.3,-7.93,-9.57,-10.01,0,*64
1485965143.56,50457,9.69,73344.0,-7.91,-9.27,-9.61,0,*5E
1485965144.84,50458,9.69,73348.0,-7.91,-9.15,-9.41,0,*52
1485965146.09,50459,9.69,73350.3,-7.91,-8.97,-9.11,0,*5D
1485965147.33,50460,9.69,73346.8,-7.91,-8.89,-8.89,0,*58
1485965148.55,50461,9.69,73344.3,-7.93,-8.81,-8.89,0,*53
1485965149.77,50462,9.69,73344.8,-7.91,-8.75,-8.75,0,*5A
1485965150.96,50463,9.69,73340.3,-7.93,-8.75,-8.71,0,*5D
1485965152.16,50464,9.69,73340.5,-7.93,-8.71,-8.71,0,*5E
1485965153.37,50465,9.69,73342.0,-7.91,-8.67,-8.59,0,*50
1485965154.6,50466,9.69,73340.8,-7.91,-8.71,-8.59,0,*54
1485965155.8,50467,9.69,73340.3,-7.89,-8.71,-8.59,0,*5C
1485965157.0,50468,9.69,73340.0,-7.89,-8.71,-8.59,0,*53
1485965158.19,50469,9.69,73340.0,-7.89,-8.71,-8.67,0,*5F
1485965159.41,50470,9.69,73344.8,-7.85,-8.71,-8.67,0,*5B
1485965160.61,50471,9.69,73340.8,-7.89,-8.89,-8.71,0,*56
1485965161.86,50472,9.69,73342.3,-7.85,-8.97,-8.81,0,*59
1485965163.09,50473,9.69,73340.8,-7.85,-9.19,-9.05,0,*52
1485965164.31,50474,9.69,73346.3,-7.89,-9.37,-9.27,0,*55
1485965165.56,50475,9.69,73342.8,-7.85,-9.37,-9.23,0,*5C
1485965166.81,50476,9.69,73342.8,-7.85,-9.37,-9.31,0,*5C
1485965168.06,50477,9.69,73348.5,-7.85,-9.37,-9.31,0,*5D
1485965169.29,50478,9.69,73346.8,-7.89,-9.37,-9.27,0,*59
1485965170.54,50479,9.69,73350.5,-7.85,-9.45,-9.19,0,*5C
1485965171.78,50480,9.69,73344.3,-7.89,-9.61,-9.15,0,*5C
1485965173.02,50481,9.69,73346.3,-7.89,-9.61,-9.15,0,*5D
1485965174.26,50482,9.69,73346.5,-7.85,-9.61,-9.05,0,*53
1485965175.51,50483,9.69,73346.3,-7.85,-9.49,-8.97,0,*52
1485965176.76,50484,9.69,73338.5,-7.85,-9.45,-8.93,0,*5D
1485965178.02,50485,9.69,73342.8,-7.85,-9.11,-8.93,0,*5D
1485965179.25,50486,9.69,73342.5,-7.85,-9.05,-8.85,0,*5C
1485965180.48,50487,9.69,73342.5,-7.85,-9.05,-8.93,0,*5A
1485965181.71,50488,9.69,73344.5,-7.85,-9.05,-8.93,0,*55
1485965182.94,50489,9.69,73346.8,-7.85,-9.05,-8.97,0,*50
1485965184.16,50490,9.69,73344.8,-7.85,-8.97,-8.93,0,*56
1485965185.4,50491,9.69,73346.8,-7.85,-8.93,-8.93,0,*53
1485965186.63,50492,9.69,73338.5,-7.85,-8.93,-8.93,0,*50
1485965187.86,50493,9.69,73342.3,-7.85,-8.93,-8.85,0,*56
1485965189.07,50494,9.69,73340.3,-7.83,-8.93,-8.97,0,*54
1485965190.28,50495,9.69,73340.3,-7.83,-9.05,-8.93,0,*5F
1485965191.5,50496,9.69,73340.8,-7.83,-8.93,-8.93,0,*52
1485965192.76,50497,9.69,73338.8,-7.81,-8.81,-8.81,0,*51
1485965193.97,50498,9.69,73340.0,-7.83,-8.97,-8.93,0,*58
1485965195.2,50499,9.69,73336.5,-7.81,-9.05,-9.01,0,*5B
1485965196.41,50500,9.69,73332.3,-7.83,-9.19,-9.19,0,*5C
1485965197.61,50501,9.69,73328.3,-7.83,-9.23,-9.31,0,*5E
1485965198.84,50502,9.69,73332.0,-7.83,-9.23,-9.45,0,*5E
1485965200.08,50503,9.69,73334.0,-7.83,-9.45,-9.75,0,*5C
1485965201.31,50504,9.69,73340.0,-7.83,-9.57,-10.15,0,*66
1485965202.53,50505,9.69,73340.0,-7.83,-9.79,-10.35,0,*69
1485965203.76,50506,9.69,73338.0,-7.81,-9.89,-10.35,0,*67
1485965204.99,50507,9.69,73338.0,-7.83,-10.15,-10.31,0,*5D
1485965206.23,50508,9.69,73338.0,-7.83,-10.71,-10.49,0,*5F
1485965207.5,50509,9.69,73348.3,-7.83,-12.07,-11.67,0,*50
1485965208.74,50510,9.69,73344.5,-7.81,-13.93,-13.19,0,*5D
1485965209.96,50511,9.69,73340.8,-7.83,-15.29,-14.29,0,*5D
1485965211.2,50512,9.69,73346.3,-7.81,-15.95,-14.89,0,*51
1485965212.44,50513,9.69,73346.5,-7.83,-16.31,-15.99,0,*5F
1485965213.66,50514,9.69,73340.0,-7.83,-16.75,-16.03,0,*58
1485965214.9,50515,9.69,73342.5,-7.81,-16.55,-15.67,0,*58
1485965216.13,50516,9.69,73344.0,-7.85,-16.89,-15.99,0,*5F
1485965217.42,50517,9.69,73342.5,-7.81,-17.25,-16.13,0,*5C
1485965218.69,50518,9.69,73338.0,-7.85,-16.75,-15.81,0,*5B
1485965219.93,50519,9.69,73346.3,-7.83,-15.43,-14.69,0,*5D
1485965221.18,50520,9.69,73342.5,-7.83,-15.57,-15.29,0,*57
1485965222.4,50521,9.69,73346.8,-7.83,-16.03,-16.41,0,*59
1485965223.66,50522,9.69,73346.0,-7.83,-17.03,-17.79,0,*51
1485965224.87,50523,9.69,73344.3,-7.83,-18.11,-18.99,0,*5D
1485965226.13,50524,9.69,73350.0,-7.85,-18.89,-19.71,0,*5A
1485965227.39,50525,9.69,73352.5,-7.89,-19.23,-19.61,0,*57
1485965228.67,50526,9.69,73350.3,-7.85,-19.27,-19.91,0,*53
1485965229.93,50527,9.69,73352.8,-7.85,-19.41,-19.95,0,*56
1485965231.14,50528,9.69,73352.5,-7.89,-19.07,-19.51,0,*5F
1485965232.35,50529,9.69,73350.8,-7.89,-19.07,-19.51,0,*5E
1485965233.6,50530,9.69,73346.5,-7.89,-19.61,-20.39,0,*52
1485965234.83,50531,9.69,73350.3,-7.89,-20.15,-20.69,0,*5F
1485965236.08,50532,9.69,73348.5,-7.85,-20.19,-20.09,0,*5A
1485965237.32,50533,9.69,73352.8,-7.89,-19.85,-19.95,0,*57
1485965238.57,50534,9.69,73354.5,-7.91,-19.81,-19.99,0,*51
1485965239.81,50535,9.69,73354.3,-7.91,-20.39,-20.59,0,*5F
1485965241.07,50536,9.69,73354.0,-7.91,-21.09,-21.03,0,*50
1485965242.33,50537,9.69,73350.5,-7.91,-21.39,-21.03,0,*52
1485965243.6,50538,9.69,73352.0,-7.91,-21.33,-21.17,0,*52
1485965244.88,50539,9.69,73354.0,-7.91,-21.67,-21.33,0,*54
1485965246.14,50540,9.63,73348.0,-7.91,-21.67,-21.09,0,*53
1485965247.41,50541,9.69,73354.8,-7.93,-21.53,-20.99,0,*5F
1485965248.66,50542,9.69,73344.3,-7.93,-20.99,-19.81,0,*58
1485965249.91,50543,9.69,73346.0,-7.93,-18.89,-17.25,0,*53
1485965251.19,50544,9.69,73346.8,-7.95,-15.81,-14.51,0,*57
1485965252.39,50545,9.69,73348.8,-7.93,-13.93,-13.07,0,*51
1485965253.65,50546,9.69,73346.3,-7.93,-13.33,-12.75,0,*5C
1485965254.85,50547,9.69,73344.5,-7.93,-13.47,-12.93,0,*56
1485965256.11,50548,9.69,73346.8,-7.95,-13.79,-12.93,0,*52
1485965257.36,50549,9.69,73344.5,-7.95,-14.61,-13.87,0,*59
1485965258.61,50550,9.69,73346.3,-7.95,-14.93,-13.73,0,*57
1485965259.87,50551,9.69,73344.8,-7.95,-14.19,-13.33,0,*50
1485965261.15,50552,9.69,73346.5,-7.95,-13.37,-13.01,0,*59
1485965262.41,50553,9.69,73342.5,-7.95,-12.89,-12.65,0,*5F
1485965263.69,50554,9.69,73342.3,-7.95,-12.15,-11.93,0,*57
1485965264.95,50555,9.69,73348.0,-7.95,-11.37,-11.19,0,*57
1485965266.21,50556,9.69,73354.0,-7.95,-10.97,-10.71,0,*50
1485965267.49,50557,9.69,73344.8,-7.95,-11.07,-10.71,0,*59
1485965268.75,50558,9.69,73346.3,-7.95,-11.89,-11.19,0,*5F
1485965270.01,50559,9.69,73342.3,-7.97,-12.71,-11.85,0,*5D
1485965271.24,50560,9.63,73338.0,-7.93,-13.51,-12.65,0,*5D
1485965272.48,50561,9.69,73340.0,-7.93,-14.15,-13.87,0,*56
1485965273.72,50562,9.69,73342.0,-7.93,-14.47,-14.23,0,*5B
1485965274.95,50563,9.69,73342.3,-7.95,-14.33,-14.15,0,*5A
1485965276.21,50564,9.69,73336.5,-7.95,-14.75,-14.37,0,*5F
1485965277.49,50565,9.69,73334.3,-7.95,-14.01,-13.87,0,*51
1485965278.72,50566,9.63,73330.0,-7.97,-13.11,-13.79,0,*57
1485965279.97,50567,9.69,73332.8,-7.95,-12.47,-13.33,0,*58
1485965281.21,50568,9.69,73334.3,-7.93,-12.15,-12.89,0,*56
1485965282.46,50569,9.69,73338.3,-7.93,-11.77,-12.15,0,*55
1485965283.71,50570,9.69,73336.5,-7.93,-11.33,-11.33,0,*5A
1485965284.95,50571,9.63,73338.3,-7.93,-11.07,-10.93,0,*57
1485965286.2,50572,9.63,73336.0,-7.95,-10.53,-10.41,0,*5D
1485965287.42,50573,9.69,73338.3,-7.95,-10.09,-9.97,0,*60
1485965288.64,50574,9.69,73340.0,-7.95,-9.67,-9.67,0,*58
1485965289.89,50575,9.69,73340.0,-7.93,-9.41,-9.45,0,*5B
1485965291.09,50576,9.69,73342.8,-7.93,-9.19,-9.19,0,*5C
1485965292.29,50577,9.69,73346.5,-7.93,-9.05,-8.93,0,*53
1485965293.49,50578,9.69,73346.5,-7.93,-8.93,-8.93,0,*52
1485965294.72,50579,9.69,73348.8,-7.91,-8.85,-8.85,0,*51
1485965295.95,50580,9.69,73352.0,-7.91,-8.85,-8.85,0,*57
1485965297.16,50581,9.63,73348.8,-7.93,-8.89,-8.89,0,*54
1485965298.38,50582,9.69,73352.8,-7.91,-8.75,-8.75,0,*55
1485965299.6,50583,9.69,73354.0,-7.91,-8.75,-8.75,0,*54
1485965300.82,50584,9.69,73348.5,-7.91,-8.75,-8.75,0,*53
1485965302.05,50585,9.69,73350.8,-7.91,-8.89,-8.85,0,*5E
1485965303.29,50586,9.69,73350.8,-7.91,-8.89,-8.85,0,*5D
1485965304.51,50587,9.69,73350.3,-7.91,-8.97,-8.97,0,*50
1485965305.71,50588,9.69,73350.5,-7.89,-8.97,-8.97,0,*56
1485965306.9,50589,9.69,73350.8,-7.89,-8.97,-8.97,0,*57
1485965308.11,50590,9.69,73348.0,-7.89,-9.01,-8.89,0,*5E
1485965309.32,50591,9.69,73340.0,-7.89,-8.89,-8.89,0,*5E